Location: Azul
(36.7830°S, 59.8500°W)
Time: 13:04:12
(UTC-03:00)

BEESAT 3 - Pass Details

Date: 23 October 2021
Orbit: 477 x 511 km, 64.9° (Epoch: 28 November)

Event Time Altitude Azimuth Distance (km) Brightness Sun altitude
Rises 20:48:51 0° 293° (WNW) 2,606 ? -16.6°
Reaches altitude 10° 20:51:37 10° 272° (W) 1,722 ? -17.1°
Maximum altitude 20:54:13 17° 230° (SW) 1,336 ? -17.5°
Drops below altitude 10° 20:56:48 10° 187° (S) 1,721 ? -18.0°
Sets 20:59:34 0° 166° (SSE) 2,604 ? -18.4°
